K5EBQ Weather Reports


Display with metric or nautical units.
time (UTC)temp
F
wind
direction
speed
MPH
gust
MPH
rain 1hr
in
rain 24hr
in
rain mn
in
humidity
%
barometer
mb
20260902224532 95 158 49.0 94.0 0.00 0.00 0.00 56 1008.6
20260902223049 96 162 47.0 81.0 0.00 0.00 0.00 57 1008.5
20260902221528 96 189 24.0 77.0 0.00 0.00 0.00 56 1008.6
20260902220027 96 192 41.0 94.0 0.00 0.00 0.00 55 1008.5
20260902214525 96 162 49.0 91.0 0.00 0.00 0.00 55 1008.6
20260902213023 97 175 20.0 60.0 0.00 0.00 0.00 54 1008.7
20260902211521 97 211 5.0 16.0 0.00 0.00 0.00 51 1008.8
20260902210019 98 225 6.0 14.0 0.00 0.00 0.00 51 1009.0
20260902204531 98 200 10.0 18.0 0.00 0.00 0.00 51 1009.1
20260902203012 98 216 10.0 20.0 0.00 0.00 0.00 51 1009.2
20260902201507 98 227 11.0 25.0 0.00 0.00 0.00 52 1009.4
20260902200003 97 169 32.0 65.0 0.00 0.00 0.00 54 1009.5
20260902194602 97 210 7.0 60.0 0.00 0.00 0.00 54 1009.9
20260902193057 97 199 13.0 79.0 0.00 0.00 0.00 53 1010.1
20260902191554 97 159 32.0 52.0 0.00 0.00 0.00 53 1010.3
20260902190051 96 236 6.0 89.0 0.00 0.00 0.00 54 1010.5
20260902184547 96 240 46.0 92.0 0.00 0.00 0.00 54 1010.8
20260902183057 96 194 10.0 48.0 0.00 0.00 0.00 54 1011.0
20260902181542 95 209 7.0 56.0 0.00 0.00 0.00 57 1011.3
20260902180044 95 217 30.0 53.0 0.00 0.00 0.00 60 1011.6
20260902174537 94 228 16.0 51.0 0.00 0.00 0.00 62 1011.9
20260902173036 92 267 17.0 59.0 0.00 0.00 0.00 64 1012.3
20260902171533 92 241 5.0 10.0 0.00 0.00 0.00 65 1012.5
20260902170033 91 195 11.0 20.0 0.00 0.00 0.00 68 1012.6
20260902164527 91 229 5.0 25.0 0.00 0.00 0.00 69 1012.7
20260902163017 89 254 4.0 11.0 0.00 0.00 0.00 75 1012.8
20260902161516 88 198 4.0 13.0 0.00 0.00 0.00 75 1012.9
20260902160014 88 265 10.0 40.0 0.00 0.00 0.00 77 1013.0
20260902154509 85 271 34.0 76.0 0.00 0.00 0.00 82 1012.9
20260902153009 85 267 37.0 121.0 0.00 0.00 0.00 83 1012.9
20260902151506 84 269 17.0 120.0 0.00 0.00 0.00 85 1012.7
20260902150006 84 229 36.0 93.0 0.00 0.00 0.00 86 1012.8
20260902144501 84 286 31.0 57.0 0.00 0.00 0.00 86 1012.8
20260902143102 83 224 13.0 68.0 0.00 0.00 0.00 87 1012.7
20260902141558 83 277 28.0 63.0 0.00 0.00 0.00 87 1012.7
20260902140056 83 229 25.0 45.0 0.00 0.00 0.00 88 1012.7
20260902134555 83 241 32.0 58.0 0.00 0.00 0.00 88 1012.7
20260902133057 82 251 28.0 93.0 0.00 0.00 0.00 89 1012.7
20260902131551 82 225 0.0 0.0 0.00 0.00 0.00 90 1012.5
20260902130049 82 248 0.0 0.0 0.00 0.00 0.00 90 1012.4
20260902124549 82 225 0.0 46.0 0.00 0.00 0.00 90 1012.2
20260902123045 81 217 11.0 36.0 0.00 0.00 0.00 90 1011.7
20260902121545 81 232 10.0 29.0 0.00 0.00 0.00 91 1011.2
20260902120043 81 229 29.0 50.0 0.00 0.00 0.00 90 1011.1
20260902114542 82 233 1.0 37.0 0.00 0.00 0.00 90 1011.2
20260902113040 82 219 20.0 48.0 0.00 0.00 0.00 89 1011.1
20260902111537 82 253 13.0 36.0 0.00 0.00 0.00 89 1011.0
20260902110045 82 230 50.0 82.0 0.00 0.00 0.00 89 1011.1
20260902104552 82 226 26.0 64.0 0.00 0.00 0.00 88 1011.2
20260902103047 82 227 24.0 73.0 0.00 0.00 0.00 88 1011.2
20260902101532 82 221 20.0 85.0 0.00 0.00 0.00 88 1011.2
20260902100031 82 279 15.0 41.0 0.00 0.00 0.00 88 1011.0
20260902094530 82 263 22.0 53.0 0.00 0.00 0.00 87 1011.0
20260902093029 82 234 18.0 85.0 0.00 0.00 0.00 86 1011.0
20260902091528 82 253 36.0 86.0 0.00 0.00 0.00 86 1011.0
20260902090032 83 225 18.0 40.0 0.00 0.00 0.00 86 1011.0
20260902084534 83 228 5.0 65.0 0.00 0.00 0.00 85 1011.0
20260902083023 83 232 20.0 73.0 0.00 0.00 0.00 84 1011.1
20260902081521 83 271 0.0 0.0 0.00 0.00 0.00 84 1011.0
20260902080022 82 229 0.0 0.0 0.00 0.00 0.00 83 1011.1
20260902074516 82 261 0.0 0.0 0.00 0.00 0.00 82 1011.1
20260902073015 81 261 0.0 0.0 0.00 0.00 0.00 81 1011.3
20260902071514 81 261 0.0 0.0 0.00 0.00 0.00 80 1011.2
20260902070021 82 261 0.0 0.0 0.00 0.00 0.00 80 1011.1
20260902064513 82 261 0.0 0.0 0.00 0.00 0.00 79 1011.0
20260902063032 82 261 0.0 0.0 0.00 0.00 0.00 79 1011.1
20260902061510 82 260 0.0 0.0 0.00 0.00 0.00 79 1010.9
20260902060009 82 261 0.0 0.0 0.00 0.00 0.00 79 1010.8
20260902054513 82 261 0.0 0.0 0.00 0.00 0.00 78 1011.0
20260902053008 82 26 0.0 0.0 0.00 0.00 0.00 79 1010.8
20260902051505 82 27 0.0 0.0 0.00 0.00 0.00 79 1011.0
20260902050006 82 26 0.0 0.0 0.00 0.00 0.00 79 1011.2
20260902044503 82 26 0.0 0.0 0.00 0.00 0.00 79 1011.3
20260902043004 82 27 0.0 0.0 0.00 0.00 0.00 79 1011.4
20260902041501 82 26 0.0 0.0 0.00 0.00 0.00 79 1011.3
20260902040100 82 26 0.0 0.0 0.00 0.00 0.00 78 1011.3
20260902034602 82 26 0.0 0.0 0.00 0.00 0.00 78 1011.5
20260902033059 82 26 0.0 0.0 0.00 0.00 0.00 78 1011.5
20260902031608 82 27 0.0 0.0 0.00 0.00 0.00 78 1011.4
20260902024602 83 26 0.0 0.0 0.00 0.00 0.00 77 1011.0
20260902023100 83 27 0.0 0.0 0.00 0.00 0.00 78 1010.8
20260902021600 83 26 0.0 0.0 0.00 0.00 0.00 77 1010.6
20260902020058 83 27 0.0 0.0 0.00 0.00 0.00 76 1010.4
20260902014555 84 26 0.0 0.0 0.00 0.00 0.00 76 1010.1
20260902013105 84 26 0.0 0.0 0.00 0.00 0.00 75 1009.9
20260902011555 84 26 0.0 0.0 0.00 0.00 0.00 76 1009.9
20260902010100 84 26 0.0 0.0 0.00 0.00 0.00 75 1010.0
20260902004553 84 26 0.0 0.0 0.00 0.00 0.00 75 1010.0
20260902003053 84 26 0.0 0.0 0.00 0.00 0.00 75 1010.2
20260902001554 85 26 0.0 0.0 0.00 0.00 0.00 74 1010.1
20260902000051 85 26 0.0 1.0 0.00 0.00 0.00 74 1009.9
20260901234549 84 19 0.0 0.0 0.00 0.00 0.00 75 1010.1
20260901233049 85 360 0.0 0.0 0.00 0.00 0.00 74 1010.3
20260901231556 85 329 31.0 59.0 0.00 0.00 0.00 73 1010.3